Location: Hohenfelde
(53.8441°N, 9.6220°E)
Time: 12:13:02
(UTC+00:00)

Cosmos 1242 Rocket - Pass Details

Date: 14 July 2020
Orbit: 448 x 487 km, 81.2° (Epoch: 09 August)

Event Time Altitude Azimuth Distance (km) Brightness Sun altitude
Rises 01:39:54 0° 351° (N) 2,469 7.0 -9.3°
Reaches altitude 10° 01:42:03 10° 359° (N) 1,592 6.1 -9.1°
Maximum altitude 01:45:22 41° 71° (ENE) 671 3.8 -8.9°
Drops below altitude 10° 01:48:40 10° 143° (SE) 1,587 5.0 -8.6°
Sets 01:50:49 0° 151° (SSE) 2,460 5.9 -8.5°
